Regional Weather Roundup
Issued by NWS

Home | Current Version | Previous Version | Graphics & Text | Print | Product List | Glossary Off
Versions: 1 2 3 4 5 6 7 8 9 10 11 12 13 14 15 16 17 18 19 20 21 22 23 24 25 26 27 28 29 30 31 32 33 34 35 36 37 38 39 40 41 42 43 44 45 46 47 48 49 50

000
ASUS45 KBOU 291510
RWRCO

WEATHER ROUNDUP FOR COLORADO
NATIONAL WEATHER SERVICE PUEBLO CO
900 AM MDT WED JUL 29 2015

NOTE: "FAIR" INDICATES FEW OR NO CLOUDS BELOW 12000 FEET WITH NO
SIGNIFICANT WEATHER AND/OR OBSTRUCTIONS TO VISIBILITY.

COZ001>005-013-030-031-291600-
...NORTHWEST COLORADO...

CITY           SKY/WX    TMP DP  RH WIND       PRES   REMARKS
CRAIG          SUNNY     58  35  42 CALM      30.40R
HAYDEN         SUNNY     55  34  44 E3        30.40S
MEEKER         SUNNY     56  35  45 CALM      30.40R
MOUNT WERNER   NOT AVBL
STEAMBOAT SPGS FAIR      53  36  54 CALM      30.41R
WALDEN         FAIR      52  32  46 W3        30.46S
$$

COZ006>008-011-291600-
...WEST CENTRAL VALLEYS...

CITY           SKY/WX    TMP DP  RH WIND       PRES   REMARKS
GRAND JUNCTION SUNNY     71  33  24 SE15      30.26R
MONTROSE       MOSUNNY   69  36  29 S3        30.34S
EAGLE          NOT AVBL
RIFLE          SUNNY     63  39  41 VRB3      30.34S
DELTA          NOT AVBL
NUCLA          FAIR      68  34  28 CALM      30.35S
$$

COZ017>023-064>068-291600-
...SOUTHWEST COLORADO...

CITY           SKY/WX    TMP DP  RH WIND       PRES   REMARKS
DURANGO        MOSUNNY   70  46  42 E3        30.37R
CORTEZ         SUNNY     68  41  37 CALM      30.29S
PAGOSA SPRINGS FAIR      63  46  54 CALM      30.46R
TELLURIDE      SUNNY     61  38  43 CALM      30.55R
WOLF CREEK PAS NOT AVBL
$$

COZ009-010-012-014-032>034-037-058>063-291600-
...CENTRAL COLORADO...

CITY           SKY/WX    TMP DP  RH WIND       PRES   REMARKS
ASPEN          SUNNY     59  37  44 CALM      30.45S
BUENA VISTA    FAIR      60  41  49 CALM      30.49F
COPPER MTN     SUNNY     54  28  37 W9        30.74R
BERTHOUD PASS  FAIR      45  34  65 W14G23    30.77R
COTTONWOOD PAS SUNNY     57  39  51 CALM      30.60S
GUNNISON       SUNNY     55  37  50 CALM      30.50S
KREMMLING      SUNNY     55  34  44 CALM      30.47F
LEADVILLE      SUNNY     52  37  56 CALM      30.60R
MONARCH PASS   SUNNY     50  39  66 SW6       30.83S
SALIDA         FAIR      64  44  49 CALM      30.54S
NIWOT RIDGE    NOT AVBL
SUNLIGHT       SUNNY     59  30  33 CALM      30.68R
WILKERSON PASS SUNNY     46  39  76 W6        30.70S
$$

COZ069>075-291600-
...SAN LUIS VALLEY/SANGRE DE CRISTO MOUNTAINS...

CITY           SKY/WX    TMP DP  RH WIND       PRES   REMARKS
ALAMOSA        MOSUNNY   65  49  56 CALM      30.43R
LA VETA PASS   MOSUNNY   55  43  62 MISG      30.62R
SAGUACHE       SUNNY     66  45  45 CALM      30.46S
$$

COZ035-036-038>040-291600-
...NORTHERN COLORADO FRONT RANGE...

CITY           SKY/WX    TMP DP  RH WIND       PRES   REMARKS
DENVER INTL AP MOSUNNY   72  47  40 S16       30.33S
DMNS CITY PARK NOT AVBL
AURORA         MOSUNNY   69  49  48 SW9       30.35R
FRONT RANGE AP MOSUNNY   72  46  40 S13       30.35R
ERIE MUNI ARPT FAIR      66  46  49 N5        30.32S
BOULDER MUN AP FAIR      64  43  45 N5        30.32F
CENTENNIAL     MOSUNNY   70  48  45 S12       30.35R
BROOMFIELD     MOSUNNY   70  43  37 NW6       30.35S
LOVELAND       SUNNY     64  45  48 N7        30.33F
LONGMONT       FAIR      69  45  41 N7        30.34S
$$

COZ041-046-047-076>085-087-088-291600-
...PIKES PEAK/PALMER DIVIDE AND SOUTHERN FOOTHILLS...

CITY           SKY/WX    TMP DP  RH WIND       PRES   REMARKS
COLO. SPRINGS  MOSUNNY   67  46  47 CALM      30.41R
A. F. ACADEMY  MOSUNNY   64  47  54 S5        30.41R
ELLICOTT       FAIR     N/A N/A N/A SE7       30.38R
FALCON         FAIR      62  45  53 SW3       30.45R
FORT CARSON    MOSUNNY   68  50  52 N2        30.37R
LIMON          MOSUNNY   68  50  52 VRB6      30.36R
MONUMENT HILL  MOSUNNY   63  45  51 S14       30.43S
TRINIDAD       CLOUDY    69  49  48 NW9       30.35R
$$

COZ042>045-048>051-090-091-291600-
...NORTHEAST COLORADO...

CITY           SKY/WX    TMP DP  RH WIND       PRES   REMARKS
GREELEY ARPT   SUNNY     70  48  46 SE12      30.31F
AKRON          MOSUNNY   70  50  49 S13       30.33R
BURLINGTON     PTSUNNY   66  51  58 E9        30.30R
WRAY           FAIR      68  52  56 E9        30.30F
STERLING       NOT AVBL
HOLYOKE        FAIR      70  50  49 SE9       30.32S
FORT MORGAN    FAIR      71  49  46 E3        30.33R
$$

COZ086-089-092>099-291600-
...SOUTHEAST COLORADO...

CITY           SKY/WX    TMP DP  RH WIND       PRES   REMARKS
PUEBLO         MOSUNNY   73  52  47 CALM      30.30R
LA JUNTA       PTSUNNY   73  53  49 E22       30.30R
LAMAR          MOSUNNY   73  51  46 E20G29    30.29R
SPRINGFIELD      N/A     65  53  65 E15       30.33R
$$



USA.gov is the U.S. government's official web portal to all federal, state and local government web resources and services.